| time (UTC) | temp F | wind direction | speed MPH | gust MPH | rain 1hr in | rain 24hr in | rain mn in | humidity % | barometer mb |
| 20260510191541 | 103 | 0 | 0.0 | 0.0 | 0.00 | 0.00 | 0.00 | 5 | 1010.9 |
| 20260510191031 | 102 | 0 | 0.0 | 0.0 | 0.00 | 0.00 | 0.00 | 5 | 1011.0 |
| 20260510190532 | 102 | 0 | 0.0 | 0.0 | 0.00 | 0.00 | 0.00 | 5 | 1011.1 |
| 20260510190055 | 101 | 0 | 0.0 | 0.0 | 0.00 | 0.00 | 0.00 | 6 | 1011.1 |
| 20260510185533 | 101 | 0 | 0.0 | 3.0 | 0.00 | 0.00 | 0.00 | 5 | 1011.3 |
| 20260510185029 | 100 | 0 | 0.0 | 5.0 | 0.00 | 0.00 | 0.00 | 6 | 1011.3 |
| 20260510184545 | 100 | 0 | 0.0 | 5.0 | 0.00 | 0.00 | 0.00 | 5 | 1011.4 |
| 20260510184031 | 100 | 88 | 0.0 | 1.0 | 0.00 | 0.00 | 0.00 | 6 | 1011.4 |
| 20260510183532 | 99 | 0 | 0.0 | 0.0 | 0.00 | 0.00 | 0.00 | 6 | 1011.5 |
| 20260510183045 | 99 | 0 | 0.0 | 0.0 | 0.00 | 0.00 | 0.00 | 6 | 1011.7 |
| 20260510182532 | 99 | 0 | 0.0 | 0.0 | 0.00 | 0.00 | 0.00 | 6 | 1011.7 |
| 20260510182029 | 98 | 0 | 0.0 | 0.0 | 0.00 | 0.00 | 0.00 | 6 | 1011.8 |
| 20260510181558 | 98 | 0 | 0.0 | 0.0 | 0.00 | 0.00 | 0.00 | 6 | 1011.7 |
| 20260510181032 | 97 | 0 | 0.0 | 0.0 | 0.00 | 0.00 | 0.00 | 6 | 1011.8 |
| 20260510180533 | 97 | 0 | 0.0 | 0.0 | 0.00 | 0.00 | 0.00 | 7 | 1011.8 |
| 20260510180046 | 96 | 0 | 0.0 | 0.0 | 0.00 | 0.00 | 0.00 | 6 | 1011.8 |
| 20260510175535 | 95 | 0 | 0.0 | 0.0 | 0.00 | 0.00 | 0.00 | 7 | 1011.8 |
| 20260510175032 | 94 | 0 | 0.0 | 0.0 | 0.00 | 0.00 | 0.00 | 7 | 1011.8 |
| 20260510174550 | 94 | 0 | 0.0 | 0.0 | 0.00 | 0.00 | 0.00 | 7 | 1011.8 |
| 20260510174031 | 94 | 0 | 0.0 | 0.0 | 0.00 | 0.00 | 0.00 | 7 | 1011.8 |
| 20260510173531 | 93 | 0 | 0.0 | 0.0 | 0.00 | 0.00 | 0.00 | 7 | 1011.8 |
| 20260510173049 | 92 | 0 | 0.0 | 0.0 | 0.00 | 0.00 | 0.00 | 7 | 1011.9 |
| 20260510172530 | 92 | 0 | 0.0 | 0.0 | 0.00 | 0.00 | 0.00 | 7 | 1011.8 |
| 20260510172031 | 92 | 0 | 0.0 | 0.0 | 0.00 | 0.00 | 0.00 | 9 | 1011.8 |
| 20260510171558 | 91 | 0 | 0.0 | 0.0 | 0.00 | 0.00 | 0.00 | 8 | 1011.7 |
| 20260510171032 | 91 | 0 | 0.0 | 0.0 | 0.00 | 0.00 | 0.00 | 8 | 1011.7 |
| 20260510170530 | 91 | 0 | 0.0 | 2.0 | 0.00 | 0.00 | 0.00 | 8 | 1011.7 |
| 20260510170049 | 90 | 0 | 0.0 | 2.0 | 0.00 | 0.00 | 0.00 | 7 | 1011.7 |
| 20260510165532 | 90 | 0 | 0.0 | 2.0 | 0.00 | 0.00 | 0.00 | 8 | 1011.6 |
| 20260510165033 | 90 | 0 | 0.0 | 1.0 | 0.00 | 0.00 | 0.00 | 7 | 1011.7 |
| 20260510164542 | 89 | 0 | 0.0 | 2.0 | 0.00 | 0.00 | 0.00 | 8 | 1011.7 |
| 20260510164032 | 89 | 0 | 0.0 | 2.0 | 0.00 | 0.00 | 0.00 | 8 | 1011.6 |
| 20260510163533 | 88 | 106 | 0.0 | 3.0 | 0.00 | 0.00 | 0.00 | 8 | 1011.6 |
| 20260510163049 | 88 | 0 | 0.0 | 3.0 | 0.00 | 0.00 | 0.00 | 9 | 1011.6 |
| 20260510162532 | 88 | 0 | 0.0 | 3.0 | 0.00 | 0.00 | 0.00 | 9 | 1011.6 |
| 20260510162029 | 88 | 0 | 0.0 | 2.0 | 0.00 | 0.00 | 0.00 | 9 | 1011.5 |
| 20260510161545 | 88 | 0 | 0.0 | 2.0 | 0.00 | 0.00 | 0.00 | 9 | 1011.5 |
| 20260510161031 | 87 | 0 | 0.0 | 3.0 | 0.00 | 0.00 | 0.00 | 9 | 1011.5 |
| 20260510160530 | 87 | 0 | 0.0 | 3.0 | 0.00 | 0.00 | 0.00 | 9 | 1011.4 |
| 20260510160050 | 87 | 115 | 0.0 | 3.0 | 0.00 | 0.00 | 0.00 | 9 | 1011.4 |
| 20260510155531 | 87 | 0 | 0.0 | 2.0 | 0.00 | 0.00 | 0.00 | 9 | 1011.4 |
| 20260510155030 | 87 | 0 | 0.0 | 2.0 | 0.00 | 0.00 | 0.00 | 9 | 1011.4 |
| 20260510154558 | 87 | 0 | 0.0 | 2.0 | 0.00 | 0.00 | 0.00 | 9 | 1011.4 |
| 20260510154033 | 87 | 0 | 0.0 | 3.0 | 0.00 | 0.00 | 0.00 | 9 | 1011.4 |
| 20260510153529 | 87 | 0 | 0.0 | 3.0 | 0.00 | 0.00 | 0.00 | 8 | 1011.4 |
| 20260510153044 | 87 | 0 | 0.0 | 3.0 | 0.00 | 0.00 | 0.00 | 9 | 1011.3 |
| 20260510152530 | 86 | 0 | 0.0 | 3.0 | 0.00 | 0.00 | 0.00 | 9 | 1011.3 |
| 20260510152030 | 86 | 0 | 0.0 | 2.0 | 0.00 | 0.00 | 0.00 | 9 | 1011.3 |
| 20260510151547 | 85 | 0 | 0.0 | 2.0 | 0.00 | 0.00 | 0.00 | 9 | 1011.3 |
| 20260510151030 | 85 | 0 | 0.0 | 2.0 | 0.00 | 0.00 | 0.00 | 9 | 1011.2 |
| 20260510150530 | 85 | 0 | 0.0 | 3.0 | 0.00 | 0.00 | 0.00 | 10 | 1011.3 |
| 20260510150052 | 84 | 0 | 0.0 | 3.0 | 0.00 | 0.00 | 0.00 | 9 | 1011.3 |
| 20260510145529 | 84 | 92 | 0.0 | 1.0 | 0.00 | 0.00 | 0.00 | 10 | 1011.2 |
| 20260510145029 | 83 | 0 | 0.0 | 0.0 | 0.00 | 0.00 | 0.00 | 11 | 1011.3 |
| 20260510144556 | 82 | 0 | 0.0 | 0.0 | 0.00 | 0.00 | 0.00 | 12 | 1011.1 |
| 20260510144030 | 81 | 0 | 0.0 | 0.0 | 0.00 | 0.00 | 0.00 | 13 | 1011.1 |
| 20260510143530 | 79 | 0 | 0.0 | 0.0 | 0.00 | 0.00 | 0.00 | 13 | 1011.1 |
| 20260510143042 | 77 | 0 | 0.0 | 0.0 | 0.00 | 0.00 | 0.00 | 13 | 1011.1 |
| 20260510142532 | 76 | 0 | 0.0 | 0.0 | 0.00 | 0.00 | 0.00 | 14 | 1011.0 |
| 20260510142033 | 75 | 0 | 0.0 | 0.0 | 0.00 | 0.00 | 0.00 | 15 | 1011.0 |
| 20260510141541 | 74 | 0 | 0.0 | 0.0 | 0.00 | 0.00 | 0.00 | 15 | 1011.0 |
| 20260510141030 | 72 | 0 | 0.0 | 0.0 | 0.00 | 0.00 | 0.00 | 16 | 1011.0 |
| 20260510140533 | 71 | 0 | 0.0 | 0.0 | 0.00 | 0.00 | 0.00 | 18 | 1010.9 |
| 20260510140039 | 71 | 0 | 0.0 | 0.0 | 0.00 | 0.00 | 0.00 | 19 | 1010.9 |
| 20260510135533 | 71 | 0 | 0.0 | 0.0 | 0.00 | 0.00 | 0.00 | 19 | 1010.8 |
| 20260510135030 | 71 | 0 | 0.0 | 0.0 | 0.00 | 0.00 | 0.00 | 18 | 1010.8 |
| 20260510134545 | 70 | 0 | 0.0 | 0.0 | 0.00 | 0.00 | 0.00 | 18 | 1010.7 |
| 20260510134030 | 70 | 0 | 0.0 | 0.0 | 0.00 | 0.00 | 0.00 | 17 | 1010.7 |
| 20260510133529 | 70 | 0 | 0.0 | 0.0 | 0.00 | 0.00 | 0.00 | 16 | 1010.6 |
| 20260510133045 | 70 | 0 | 0.0 | 0.0 | 0.00 | 0.00 | 0.00 | 18 | 1010.6 |
| 20260510132533 | 70 | 0 | 0.0 | 0.0 | 0.00 | 0.00 | 0.00 | 18 | 1010.4 |
| 20260510132030 | 70 | 0 | 0.0 | 0.0 | 0.00 | 0.00 | 0.00 | 16 | 1010.3 |
| 20260510131546 | 70 | 0 | 0.0 | 0.0 | 0.00 | 0.00 | 0.00 | 16 | 1010.2 |
| 20260510131030 | 70 | 0 | 0.0 | 0.0 | 0.00 | 0.00 | 0.00 | 15 | 1010.2 |
| 20260510130528 | 70 | 0 | 0.0 | 0.0 | 0.00 | 0.00 | 0.00 | 15 | 1010.1 |
| 20260510130042 | 70 | 0 | 0.0 | 0.0 | 0.00 | 0.00 | 0.00 | 15 | 1010.0 |
| 20260510125532 | 70 | 0 | 0.0 | 0.0 | 0.00 | 0.00 | 0.00 | 15 | 1010.1 |
| 20260510125029 | 70 | 0 | 0.0 | 0.0 | 0.00 | 0.00 | 0.00 | 14 | 1009.9 |
| 20260510124542 | 71 | 0 | 0.0 | 0.0 | 0.00 | 0.00 | 0.00 | 15 | 1009.8 |
| 20260510124030 | 71 | 0 | 0.0 | 0.0 | 0.00 | 0.00 | 0.00 | 15 | 1009.7 |
| 20260510123529 | 71 | 0 | 0.0 | 0.0 | 0.00 | 0.00 | 0.00 | 15 | 1009.7 |
| 20260510123045 | 71 | 0 | 0.0 | 0.0 | 0.00 | 0.00 | 0.00 | 14 | 1009.7 |
| 20260510122529 | 72 | 0 | 0.0 | 0.0 | 0.00 | 0.00 | 0.00 | 14 | 1009.7 |
| 20260510122031 | 72 | 0 | 0.0 | 0.0 | 0.00 | 0.00 | 0.00 | 13 | 1009.7 |
| 20260510121545 | 72 | 0 | 0.0 | 0.0 | 0.00 | 0.00 | 0.00 | 14 | 1009.6 |
| 20260510121029 | 72 | 0 | 0.0 | 0.0 | 0.00 | 0.00 | 0.00 | 13 | 1009.6 |
| 20260510120534 | 72 | 0 | 0.0 | 0.0 | 0.00 | 0.00 | 0.00 | 13 | 1009.5 |
| 20260510120043 | 73 | 0 | 0.0 | 0.0 | 0.00 | 0.00 | 0.00 | 13 | 1009.5 |
| 20260510115530 | 73 | 0 | 0.0 | 0.0 | 0.00 | 0.00 | 0.00 | 13 | 1009.6 |
| 20260510115030 | 73 | 0 | 0.0 | 0.0 | 0.00 | 0.00 | 0.00 | 14 | 1009.6 |
| 20260510114540 | 73 | 0 | 0.0 | 0.0 | 0.00 | 0.00 | 0.00 | 13 | 1009.5 |
| 20260510114030 | 73 | 0 | 0.0 | 0.0 | 0.00 | 0.00 | 0.00 | 13 | 1009.4 |
| 20260510113530 | 73 | 0 | 0.0 | 0.0 | 0.00 | 0.00 | 0.00 | 13 | 1009.4 |
| 20260510113055 | 74 | 0 | 0.0 | 0.0 | 0.00 | 0.00 | 0.00 | 15 | 1009.3 |
| 20260510112531 | 74 | 0 | 0.0 | 0.0 | 0.00 | 0.00 | 0.00 | 13 | 1009.3 |
| 20260510112030 | 74 | 0 | 0.0 | 0.0 | 0.00 | 0.00 | 0.00 | 13 | 1009.3 |
| 20260510111545 | 74 | 0 | 0.0 | 0.0 | 0.00 | 0.00 | 0.00 | 12 | 1009.3 |
| 20260510111029 | 74 | 0 | 0.0 | 0.0 | 0.00 | 0.00 | 0.00 | 12 | 1009.4 |
| 20260510110529 | 75 | 0 | 0.0 | 0.0 | 0.00 | 0.00 | 0.00 | 12 | 1009.4 |
| 20260510110053 | 75 | 0 | 0.0 | 0.0 | 0.00 | 0.00 | 0.00 | 12 | 1009.4 |
| 20260510105529 | 75 | 0 | 0.0 | 0.0 | 0.00 | 0.00 | 0.00 | 13 | 1009.3 |
| 20260510105029 | 76 | 0 | 0.0 | 0.0 | 0.00 | 0.00 | 0.00 | 12 | 1009.2 |
| 20260510104542 | 76 | 0 | 0.0 | 0.0 | 0.00 | 0.00 | 0.00 | 12 | 1009.2 |
| 20260510104030 | 76 | 0 | 0.0 | 0.0 | 0.00 | 0.00 | 0.00 | 10 | 1009.1 |
| 20260510103529 | 76 | 0 | 0.0 | 0.0 | 0.00 | 0.00 | 0.00 | 11 | 1009.2 |
| 20260510103046 | 76 | 0 | 0.0 | 0.0 | 0.00 | 0.00 | 0.00 | 10 | 1009.2 |
| 20260510102531 | 76 | 0 | 0.0 | 0.0 | 0.00 | 0.00 | 0.00 | 10 | 1009.2 |
| 20260510102032 | 76 | 0 | 0.0 | 0.0 | 0.00 | 0.00 | 0.00 | 10 | 1009.2 |
| 20260510101559 | 76 | 0 | 0.0 | 0.0 | 0.00 | 0.00 | 0.00 | 10 | 1009.2 |
| 20260510101032 | 76 | 0 | 0.0 | 0.0 | 0.00 | 0.00 | 0.00 | 10 | 1009.2 |
| 20260510100532 | 76 | 0 | 0.0 | 0.0 | 0.00 | 0.00 | 0.00 | 11 | 1009.1 |
| 20260510100050 | 76 | 0 | 0.0 | 0.0 | 0.00 | 0.00 | 0.00 | 10 | 1009.0 |
| 20260510095532 | 77 | 0 | 0.0 | 0.0 | 0.00 | 0.00 | 0.00 | 10 | 1009.0 |
| 20260510095035 | 77 | 0 | 0.0 | 0.0 | 0.00 | 0.00 | 0.00 | 10 | 1009.0 |
| 20260510094548 | 77 | 0 | 0.0 | 0.0 | 0.00 | 0.00 | 0.00 | 11 | 1008.9 |
| 20260510094029 | 78 | 0 | 0.0 | 0.0 | 0.00 | 0.00 | 0.00 | 11 | 1008.9 |
| 20260510093529 | 78 | 0 | 0.0 | 0.0 | 0.00 | 0.00 | 0.00 | 10 | 1008.9 |
| 20260510093043 | 78 | 0 | 0.0 | 0.0 | 0.00 | 0.00 | 0.00 | 10 | 1008.8 |
| 20260510092530 | 79 | 0 | 0.0 | 0.0 | 0.00 | 0.00 | 0.00 | 9 | 1008.8 |
| 20260510092030 | 79 | 0 | 0.0 | 0.0 | 0.00 | 0.00 | 0.00 | 10 | 1008.7 |
| 20260510091541 | 79 | 0 | 0.0 | 0.0 | 0.00 | 0.00 | 0.00 | 10 | 1008.8 |
| 20260510091029 | 79 | 0 | 0.0 | 0.0 | 0.00 | 0.00 | 0.00 | 10 | 1008.7 |
| 20260510090529 | 79 | 0 | 0.0 | 0.0 | 0.00 | 0.00 | 0.00 | 9 | 1008.7 |
| 20260510090049 | 79 | 0 | 0.0 | 0.0 | 0.00 | 0.00 | 0.00 | 9 | 1008.7 |
| 20260510085528 | 79 | 0 | 0.0 | 0.0 | 0.00 | 0.00 | 0.00 | 9 | 1008.6 |
| 20260510085028 | 79 | 0 | 0.0 | 0.0 | 0.00 | 0.00 | 0.00 | 9 | 1008.6 |
| 20260510084603 | 79 | 0 | 0.0 | 0.0 | 0.00 | 0.00 | 0.00 | 9 | 1008.6 |
| 20260510084031 | 79 | 0 | 0.0 | 0.0 | 0.00 | 0.00 | 0.00 | 9 | 1008.6 |
| 20260510083531 | 78 | 0 | 0.0 | 0.0 | 0.00 | 0.00 | 0.00 | 9 | 1008.7 |
| 20260510083045 | 78 | 0 | 0.0 | 0.0 | 0.00 | 0.00 | 0.00 | 9 | 1008.8 |
| 20260510082529 | 79 | 0 | 0.0 | 0.0 | 0.00 | 0.00 | 0.00 | 9 | 1008.7 |
| 20260510082029 | 79 | 0 | 0.0 | 0.0 | 0.00 | 0.00 | 0.00 | 9 | 1008.7 |
| 20260510081543 | 79 | 0 | 0.0 | 0.0 | 0.00 | 0.00 | 0.00 | 9 | 1008.7 |
| 20260510081029 | 79 | 0 | 0.0 | 0.0 | 0.00 | 0.00 | 0.00 | 9 | 1008.7 |
| 20260510080528 | 79 | 0 | 0.0 | 0.0 | 0.00 | 0.00 | 0.00 | 9 | 1008.8 |
| 20260510080055 | 80 | 0 | 0.0 | 0.0 | 0.00 | 0.00 | 0.00 | 9 | 1008.8 |
| 20260510075529 | 80 | 0 | 0.0 | 0.0 | 0.00 | 0.00 | 0.00 | 10 | 1008.8 |
| 20260510075029 | 80 | 0 | 0.0 | 0.0 | 0.00 | 0.00 | 0.00 | 10 | 1008.9 |
| 20260510074557 | 80 | 0 | 0.0 | 0.0 | 0.00 | 0.00 | 0.00 | 10 | 1008.8 |
| 20260510074032 | 80 | 0 | 0.0 | 0.0 | 0.00 | 0.00 | 0.00 | 10 | 1008.9 |
| 20260510073528 | 80 | 0 | 0.0 | 0.0 | 0.00 | 0.00 | 0.00 | 9 | 1008.8 |
| 20260510073051 | 80 | 0 | 0.0 | 0.0 | 0.00 | 0.00 | 0.00 | 9 | 1008.7 |
| 20260510072532 | 80 | 0 | 0.0 | 0.0 | 0.00 | 0.00 | 0.00 | 9 | 1008.8 |
| 20260510072030 | 81 | 0 | 0.0 | 0.0 | 0.00 | 0.00 | 0.00 | 9 | 1008.7 |
| 20260510071547 | 81 | 0 | 0.0 | 0.0 | 0.00 | 0.00 | 0.00 | 9 | 1008.7 |
| 20260510071029 | 81 | 0 | 0.0 | 0.0 | 0.00 | 0.00 | 0.00 | 9 | 1008.7 |
| 20260510070529 | 81 | 0 | 0.0 | 0.0 | 0.00 | 0.00 | 0.00 | 9 | 1008.8 |
| 20260510070050 | 81 | 0 | 0.0 | 0.0 | 0.00 | 0.00 | 0.00 | 10 | 1008.7 |
| 20260510065529 | 81 | 0 | 0.0 | 0.0 | 0.00 | 0.00 | 0.00 | 10 | 1008.7 |
| 20260510065033 | 81 | 0 | 0.0 | 0.0 | 0.00 | 0.00 | 0.00 | 11 | 1008.7 |
| 20260510064544 | 82 | 0 | 0.0 | 0.0 | 0.00 | 0.00 | 0.00 | 10 | 1008.7 |
| 20260510064028 | 82 | 0 | 0.0 | 0.0 | 0.00 | 0.00 | 0.00 | 11 | 1008.7 |
| 20260510063528 | 82 | 0 | 0.0 | 0.0 | 0.00 | 0.00 | 0.00 | 11 | 1008.6 |
| 20260510063046 | 82 | 0 | 0.0 | 0.0 | 0.00 | 0.00 | 0.00 | 11 | 1008.7 |
| 20260510062531 | 82 | 0 | 0.0 | 0.0 | 0.00 | 0.00 | 0.00 | 10 | 1008.6 |
| 20260510062030 | 82 | 0 | 0.0 | 0.0 | 0.00 | 0.00 | 0.00 | 10 | 1008.7 |
| 20260510061547 | 82 | 0 | 0.0 | 0.0 | 0.00 | 0.00 | 0.00 | 10 | 1008.5 |
| 20260510061031 | 83 | 0 | 0.0 | 0.0 | 0.00 | 0.00 | 0.00 | 10 | 1008.5 |
| 20260510060530 | 83 | 0 | 0.0 | 0.0 | 0.00 | 0.00 | 0.00 | 10 | 1008.5 |
| 20260510060048 | 83 | 0 | 0.0 | 0.0 | 0.00 | 0.00 | 0.00 | 9 | 1008.6 |
| 20260510055537 | 84 | 0 | 0.0 | 0.0 | 0.00 | 0.00 | 0.00 | 9 | 1008.4 |
| 20260510055029 | 84 | 0 | 0.0 | 0.0 | 0.00 | 0.00 | 0.00 | 8 | 1008.3 |
| 20260510054543 | 84 | 0 | 0.0 | 0.0 | 0.00 | 0.00 | 0.00 | 8 | 1008.3 |
| 20260510054028 | 85 | 0 | 0.0 | 0.0 | 0.00 | 0.00 | 0.00 | 8 | 1008.2 |
| 20260510053529 | 85 | 0 | 0.0 | 0.0 | 0.00 | 0.00 | 0.00 | 8 | 1008.3 |
| 20260510053046 | 86 | 0 | 0.0 | 0.0 | 0.00 | 0.00 | 0.00 | 8 | 1008.3 |
| 20260510052530 | 86 | 0 | 0.0 | 0.0 | 0.00 | 0.00 | 0.00 | 8 | 1008.2 |
| 20260510052028 | 86 | 0 | 0.0 | 0.0 | 0.00 | 0.00 | 0.00 | 7 | 1008.1 |
| 20260510051549 | 86 | 0 | 0.0 | 0.0 | 0.00 | 0.00 | 0.00 | 7 | 1008.1 |
| 20260510051031 | 87 | 0 | 0.0 | 0.0 | 0.00 | 0.00 | 0.00 | 7 | 1008.1 |
| 20260510050528 | 87 | 0 | 0.0 | 0.0 | 0.00 | 0.00 | 0.00 | 7 | 1008.2 |
| 20260510050059 | 87 | 0 | 0.0 | 0.0 | 0.00 | 0.00 | 0.00 | 7 | 1008.1 |
| 20260510045530 | 87 | 0 | 0.0 | 0.0 | 0.00 | 0.00 | 0.00 | 7 | 1008.1 |
| 20260510045030 | 88 | 0 | 0.0 | 0.0 | 0.00 | 0.00 | 0.00 | 7 | 1008.0 |
| 20260510044549 | 88 | 0 | 0.0 | 0.0 | 0.00 | 0.00 | 0.00 | 7 | 1007.9 |
| 20260510044030 | 88 | 0 | 0.0 | 0.0 | 0.00 | 0.00 | 0.00 | 7 | 1007.9 |
| 20260510043531 | 89 | 0 | 0.0 | 0.0 | 0.00 | 0.00 | 0.00 | 7 | 1007.8 |
| 20260510043046 | 89 | 0 | 0.0 | 0.0 | 0.00 | 0.00 | 0.00 | 8 | 1007.7 |
| 20260510042530 | 89 | 0 | 0.0 | 0.0 | 0.00 | 0.00 | 0.00 | 8 | 1007.7 |
| 20260510042031 | 90 | 0 | 0.0 | 0.0 | 0.00 | 0.00 | 0.00 | 7 | 1007.7 |
| 20260510041545 | 90 | 0 | 0.0 | 0.0 | 0.00 | 0.00 | 0.00 | 7 | 1007.7 |
| 20260510041029 | 90 | 0 | 0.0 | 0.0 | 0.00 | 0.00 | 0.00 | 7 | 1007.5 |
| 20260510040531 | 91 | 0 | 0.0 | 0.0 | 0.00 | 0.00 | 0.00 | 7 | 1007.5 |
| 20260510040100 | 91 | 0 | 0.0 | 0.0 | 0.00 | 0.00 | 0.00 | 7 | 1007.5 |
| 20260510035530 | 91 | 0 | 0.0 | 0.0 | 0.00 | 0.00 | 0.00 | 7 | 1007.4 |
| 20260510035032 | 91 | 0 | 0.0 | 0.0 | 0.00 | 0.00 | 0.00 | 7 | 1007.3 |
| 20260510034546 | 92 | 0 | 0.0 | 0.0 | 0.00 | 0.00 | 0.00 | 7 | 1007.3 |
| 20260510034029 | 92 | 0 | 0.0 | 0.0 | 0.00 | 0.00 | 0.00 | 6 | 1007.2 |
| 20260510033532 | 92 | 0 | 0.0 | 0.0 | 0.00 | 0.00 | 0.00 | 6 | 1007.2 |
| 20260510033054 | 93 | 0 | 0.0 | 0.0 | 0.00 | 0.00 | 0.00 | 6 | 1007.1 |
| 20260510032529 | 93 | 0 | 0.0 | 0.0 | 0.00 | 0.00 | 0.00 | 6 | 1007.1 |
| 20260510032029 | 94 | 0 | 0.0 | 0.0 | 0.00 | 0.00 | 0.00 | 6 | 1007.0 |
| 20260510031547 | 94 | 0 | 0.0 | 0.0 | 0.00 | 0.00 | 0.00 | 6 | 1006.9 |
| 20260510031029 | 94 | 0 | 0.0 | 0.0 | 0.00 | 0.00 | 0.00 | 6 | 1006.8 |
| 20260510030529 | 95 | 0 | 0.0 | 0.0 | 0.00 | 0.00 | 0.00 | 6 | 1006.8 |
| 20260510030043 | 95 | 0 | 0.0 | 0.0 | 0.00 | 0.00 | 0.00 | 5 | 1006.8 |
| 20260510025532 | 96 | 0 | 0.0 | 0.0 | 0.00 | 0.00 | 0.00 | 5 | 1006.6 |
| 20260510025029 | 96 | 0 | 0.0 | 0.0 | 0.00 | 0.00 | 0.00 | 5 | 1006.6 |
| 20260510024539 | 97 | 0 | 0.0 | 0.0 | 0.00 | 0.00 | 0.00 | 5 | 1006.6 |
| 20260510024028 | 97 | 0 | 0.0 | 0.0 | 0.00 | 0.00 | 0.00 | 5 | 1006.6 |
| 20260510023529 | 97 | 0 | 0.0 | 0.0 | 0.00 | 0.00 | 0.00 | 5 | 1006.5 |
| 20260510023045 | 97 | 0 | 0.0 | 0.0 | 0.00 | 0.00 | 0.00 | 5 | 1006.5 |
| 20260510022529 | 98 | 0 | 0.0 | 0.0 | 0.00 | 0.00 | 0.00 | 5 | 1006.4 |
| 20260510022030 | 98 | 0 | 0.0 | 0.0 | 0.00 | 0.00 | 0.00 | 5 | 1006.2 |
| 20260510021635 | 98 | 0 | 0.0 | 0.0 | 0.00 | 0.00 | 0.00 | 5 | 1006.3 |
| 20260510021030 | 99 | 0 | 0.0 | 0.0 | 0.00 | 0.00 | 0.00 | 5 | 1006.3 |
| 20260510020604 | 99 | 0 | 0.0 | 0.0 | 0.00 | 0.00 | 0.00 | 5 | 1006.2 |
| 20260510020043 | 99 | 0 | 0.0 | 1.0 | 0.00 | 0.00 | 0.00 | 5 | 1006.1 |
| 20260510015533 | 99 | 0 | 0.0 | 1.0 | 0.00 | 0.00 | 0.00 | 5 | 1006.1 |
| 20260510015029 | 100 | 0 | 0.0 | 1.0 | 0.00 | 0.00 | 0.00 | 4 | 1006.1 |
| 20260510014552 | 100 | 0 | 0.0 | 2.0 | 0.00 | 0.00 | 0.00 | 4 | 1006.1 |
| 20260510014029 | 100 | 0 | 0.0 | 2.0 | 0.00 | 0.00 | 0.00 | 4 | 1006.0 |
| 20260510013528 | 101 | 0 | 0.0 | 3.0 | 0.00 | 0.00 | 0.00 | 5 | 1006.0 |
| 20260510013057 | 101 | 0 | 0.0 | 3.0 | 0.00 | 0.00 | 0.00 | 4 | 1006.0 |
| 20260510012532 | 101 | 0 | 0.0 | 3.0 | 0.00 | 0.00 | 0.00 | 4 | 1006.1 |
| 20260510012032 | 102 | 0 | 0.0 | 1.0 | 0.00 | 0.00 | 0.00 | 4 | 1006.1 |
| 20260510011545 | 102 | 0 | 0.0 | 2.0 | 0.00 | 0.00 | 0.00 | 4 | 1006.1 |
| 20260510011030 | 102 | 0 | 0.0 | 2.0 | 0.00 | 0.00 | 0.00 | 4 | 1006.1 |
| 20260510010529 | 103 | 0 | 0.0 | 2.0 | 0.00 | 0.00 | 0.00 | 4 | 1006.0 |
| 20260510010054 | 103 | 0 | 0.0 | 2.0 | 0.00 | 0.00 | 0.00 | 4 | 1006.0 |
| 20260510005529 | 103 | 0 | 0.0 | 2.0 | 0.00 | 0.00 | 0.00 | 4 | 1006.1 |
| 20260510005029 | 104 | 0 | 0.0 | 1.0 | 0.00 | 0.00 | 0.00 | 4 | 1005.9 |
| 20260510004544 | 104 | 0 | 0.0 | 1.0 | 0.00 | 0.00 | 0.00 | 4 | 1006.0 |
| 20260510004029 | 104 | 0 | 0.0 | 1.0 | 0.00 | 0.00 | 0.00 | 4 | 1006.1 |
| 20260510003531 | 105 | 0 | 0.0 | 0.0 | 0.00 | 0.00 | 0.00 | 4 | 1006.1 |
| 20260510003042 | 105 | 0 | 0.0 | 1.0 | 0.00 | 0.00 | 0.00 | 4 | 1006.0 |
| 20260510002528 | 105 | 0 | 0.0 | 1.0 | 0.00 | 0.00 | 0.00 | 4 | 1006.1 |
| 20260510002029 | 106 | 0 | 0.0 | 0.0 | 0.00 | 0.00 | 0.00 | 4 | 1006.1 |
| 20260510001550 | 106 | 0 | 0.0 | 0.0 | 0.00 | 0.00 | 0.00 | 4 | 1006.2 |
| 20260510001029 | 106 | 0 | 0.0 | 0.0 | 0.00 | 0.00 | 0.00 | 4 | 1006.1 |
| 20260510000530 | 106 | 0 | 0.0 | 0.0 | 0.00 | 0.00 | 0.00 | 4 | 1006.2 |
| 20260510000048 | 106 | 0 | 0.0 | 0.0 | 0.00 | 0.00 | 0.00 | 4 | 1006.2 |
| 20260509235529 | 106 | 0 | 0.0 | 1.0 | 0.00 | 0.00 | 0.00 | 4 | 1006.2 |
| 20260509235030 | 106 | 0 | 0.0 | 1.0 | 0.00 | 0.00 | 0.00 | 4 | 1006.2 |
| 20260509234543 | 106 | 0 | 0.0 | 1.0 | 0.00 | 0.00 | 0.00 | 4 | 1006.4 |
| 20260509234031 | 106 | 0 | 0.0 | 1.0 | 0.00 | 0.00 | 0.00 | 4 | 1006.5 |
| 20260509233530 | 106 | 0 | 0.0 | 1.0 | 0.00 | 0.00 | 0.00 | 4 | 1006.4 |
| 20260509233044 | 106 | 0 | 0.0 | 1.0 | 0.00 | 0.00 | 0.00 | 4 | 1006.5 |
| 20260509232533 | 106 | 0 | 0.0 | 1.0 | 0.00 | 0.00 | 0.00 | 4 | 1006.5 |
| 20260509232029 | 106 | 0 | 0.0 | 1.0 | 0.00 | 0.00 | 0.00 | 5 | 1006.5 |
| 20260509231547 | 106 | 0 | 0.0 | 1.0 | 0.00 | 0.00 | 0.00 | 4 | 1006.5 |
| 20260509231029 | 106 | 0 | 0.0 | 1.0 | 0.00 | 0.00 | 0.00 | 4 | 1006.5 |
| 20260509230529 | 106 | 0 | 0.0 | 1.0 | 0.00 | 0.00 | 0.00 | 4 | 1006.6 |
| 20260509230049 | 106 | 0 | 0.0 | 1.0 | 0.00 | 0.00 | 0.00 | 4 | 1006.6 |
| 20260509225530 | 106 | 0 | 0.0 | 1.0 | 0.00 | 0.00 | 0.00 | 4 | 1006.7 |
| 20260509225029 | 106 | 0 | 0.0 | 2.0 | 0.00 | 0.00 | 0.00 | 4 | 1006.8 |
| 20260509224541 | 107 | 0 | 0.0 | 2.0 | 0.00 | 0.00 | 0.00 | 4 | 1006.7 |
| 20260509224029 | 107 | 0 | 0.0 | 0.0 | 0.00 | 0.00 | 0.00 | 4 | 1006.9 |
| 20260509223531 | 107 | 0 | 0.0 | 2.0 | 0.00 | 0.00 | 0.00 | 4 | 1006.9 |
| 20260509223044 | 107 | 0 | 0.0 | 2.0 | 0.00 | 0.00 | 0.00 | 5 | 1007.1 |
| 20260509222530 | 107 | 0 | 0.0 | 1.0 | 0.00 | 0.00 | 0.00 | 4 | 1007.1 |
| 20260509222035 | 106 | 0 | 0.0 | 1.0 | 0.00 | 0.00 | 0.00 | 4 | 1007.2 |
| 20260509221541 | 107 | 0 | 0.0 | 2.0 | 0.00 | 0.00 | 0.00 | 4 | 1007.2 |
| 20260509221029 | 107 | 0 | 0.0 | 2.0 | 0.00 | 0.00 | 0.00 | 4 | 1007.2 |
| 20260509220529 | 107 | 0 | 0.0 | 1.0 | 0.00 | 0.00 | 0.00 | 4 | 1007.5 |
| 20260509220048 | 107 | 0 | 0.0 | 1.0 | 0.00 | 0.00 | 0.00 | 4 | 1007.5 |
| 20260509215529 | 107 | 0 | 0.0 | 2.0 | 0.00 | 0.00 | 0.00 | 4 | 1007.6 |
| 20260509215027 | 107 | 0 | 0.0 | 2.0 | 0.00 | 0.00 | 0.00 | 4 | 1007.8 |
| 20260509214546 | 107 | 0 | 0.0 | 2.0 | 0.00 | 0.00 | 0.00 | 4 | 1007.8 |
| 20260509214027 | 106 | 0 | 0.0 | 3.0 | 0.00 | 0.00 | 0.00 | 4 | 1007.8 |
| 20260509213527 | 106 | 0 | 0.0 | 3.0 | 0.00 | 0.00 | 0.00 | 4 | 1007.8 |
| 20260509213053 | 106 | 0 | 0.0 | 3.0 | 0.00 | 0.00 | 0.00 | 4 | 1007.9 |
| 20260509212530 | 106 | 0 | 0.0 | 1.0 | 0.00 | 0.00 | 0.00 | 4 | 1008.0 |
| 20260509212033 | 105 | 0 | 0.0 | 1.0 | 0.00 | 0.00 | 0.00 | 4 | 1008.1 |
| 20260509211539 | 105 | 0 | 0.0 | 1.0 | 0.00 | 0.00 | 0.00 | 5 | 1008.2 |
| 20260509211030 | 104 | 0 | 0.0 | 2.0 | 0.00 | 0.00 | 0.00 | 6 | 1008.3 |
| 20260509210529 | 104 | 0 | 0.0 | 2.0 | 0.00 | 0.00 | 0.00 | 6 | 1008.3 |
| 20260509210050 | 104 | 0 | 0.0 | 2.0 | 0.00 | 0.00 | 0.00 | 6 | 1008.3 |
| 20260509205528 | 103 | 0 | 0.0 | 2.0 | 0.00 | 0.00 | 0.00 | 6 | 1008.4 |
| 20260509205029 | 103 | 0 | 0.0 | 6.0 | 0.00 | 0.00 | 0.00 | 5 | 1008.5 |
| 20260509204544 | 103 | 0 | 0.0 | 6.0 | 0.00 | 0.00 | 0.00 | 5 | 1008.7 |
| 20260509204030 | 104 | 0 | 0.0 | 2.0 | 0.00 | 0.00 | 0.00 | 6 | 1008.7 |
| 20260509203531 | 103 | 0 | 0.0 | 6.0 | 0.00 | 0.00 | 0.00 | 7 | 1008.8 |
| 20260509203043 | 103 | 0 | 0.0 | 6.0 | 0.00 | 0.00 | 0.00 | 6 | 1008.9 |
| 20260509202529 | 104 | 111 | 0.0 | 4.0 | 0.00 | 0.00 | 0.00 | 6 | 1008.9 |
| 20260509202033 | 103 | 177 | 0.0 | 1.0 | 0.00 | 0.00 | 0.00 | 6 | 1009.0 |
| 20260509201544 | 103 | 0 | 0.0 | 1.0 | 0.00 | 0.00 | 0.00 | 5 | 1009.0 |
| 20260509201029 | 103 | 0 | 0.0 | 6.0 | 0.00 | 0.00 | 0.00 | 5 | 1009.2 |
| 20260509200530 | 103 | 0 | 0.0 | 6.0 | 0.00 | 0.00 | 0.00 | 5 | 1009.3 |
| 20260509200050 | 103 | 94 | 0.0 | 6.0 | 0.00 | 0.00 | 0.00 | 5 | 1009.3 |
| 20260509195530 | 102 | 0 | 0.0 | 0.0 | 0.00 | 0.00 | 0.00 | 5 | 1009.4 |
| 20260509195029 | 102 | 0 | 0.0 | 0.0 | 0.00 | 0.00 | 0.00 | 5 | 1009.4 |
| 20260509194555 | 102 | 0 | 0.0 | 0.0 | 0.00 | 0.00 | 0.00 | 5 | 1009.5 |
| 20260509194030 | 101 | 0 | 0.0 | 0.0 | 0.00 | 0.00 | 0.00 | 5 | 1009.6 |
| 20260509193531 | 101 | 0 | 0.0 | 2.0 | 0.00 | 0.00 | 0.00 | 6 | 1009.6 |
| 20260509193045 | 100 | 0 | 0.0 | 2.0 | 0.00 | 0.00 | 0.00 | 6 | 1009.7 |
| 20260509192528 | 100 | 0 | 0.0 | 2.0 | 0.00 | 0.00 | 0.00 | 5 | 1009.7 |